Location: Napa Junction
(38.1874°N, 122.2508°W)
Time: 23:20:31
(UTC+00:00)

CENTAUR R/B - Pass Details

Date: 14 December 2024
Orbit: 654 x 1528 km, 63.4° (Epoch: 19 January)

Event Time Altitude Azimuth Distance (km) Brightness Sun altitude
Exits shadow 12:14:38 24° 146° (SE) 1,622 3.9 -35.1°
Maximum altitude 12:16:38 30° 110° (ESE) 1,464 3.9 -34.7°
Drops below altitude 10° 12:21:56 10° 51° (NE) 2,713 5.3 -33.7°
Sets 12:25:05 0° 42° (NE) 3,822 6.1 -33.1°
